Location: Great Falls
(47.5000°N, 111.3000°W)
Time: 08:11:53

Tiangong 2 - Visible Passes

Search period start: 24 March 2018 00:00
Search period end: 03 April 2018 00:00
Orbit: 383 x 388 km, 42.8° (Epoch: 24 March)

Date Brightness Start Highest point End Pass type
(mag) Time Alt. Az. Time Alt. Az. Time Alt. Az.
24 Mar 3.7 05:11:33 13° SE 05:11:33 13° SE 05:12:02 10° SE visible
25 Mar 3.5 05:47:39 12° S 05:47:39 12° S 05:48:14 10° S visible
02 Apr 3.1 20:52:33 10° S 20:54:17 14° SSE 20:55:00 13° SE visible
